TimeMST,TemperatureF,Dew PointF,Humidity,Sea Level PressureIn,VisibilityMPH,Wind Direction,Wind SpeedMPH,Gust SpeedMPH,PrecipitationIn,Events,Conditions,WindDirDegrees,DateUTC
12:53 AM,30.0,21.0,69,30.17,10.0,SW,17.3,-,0.00,,Overcast,230,2013-01-31 07:53:00
1:53 AM,30.0,21.0,69,30.20,6.0,WSW,17.3,-,0.00,Snow,Light Snow,240,2013-01-31 08:53:00
2:53 AM,30.0,19.9,66,30.20,10.0,WSW,19.6,-,0.00,,Overcast,250,2013-01-31 09:53:00
3:53 AM,30.0,19.9,66,30.19,10.0,SW,17.3,-,N/A,,Overcast,230,2013-01-31 10:53:00
4:53 AM,28.9,19.0,67,30.21,10.0,WSW,17.3,25.3,N/A,,Mostly Cloudy,240,2013-01-31 11:53:00
5:53 AM,30.0,19.0,64,30.23,10.0,WSW,19.6,-,N/A,,Overcast,250,2013-01-31 12:53:00
6:53 AM,30.0,19.0,64,30.25,10.0,WSW,15.0,-,N/A,,Overcast,250,2013-01-31 13:53:00
7:53 AM,27.0,19.0,72,30.29,10.0,NW,3.5,-,N/A,,Overcast,320,2013-01-31 14:53:00
8:53 AM,28.9,19.9,69,30.32,10.0,WSW,12.7,-,N/A,,Overcast,250,2013-01-31 15:53:00
9:53 AM,30.9,19.9,64,30.32,10.0,SW,15.0,-,N/A,,Overcast,230,2013-01-31 16:53:00
10:53 AM,34.0,21.0,59,30.33,10.0,WSW,12.7,-,N/A,,Mostly Cloudy,240,2013-01-31 17:53:00
11:53 AM,35.1,21.9,59,30.31,10.0,WSW,10.4,-,N/A,,Clear,240,2013-01-31 18:53:00
12:53 PM,35.1,21.0,57,30.28,10.0,WSW,11.5,-,N/A,,Clear,250,2013-01-31 19:53:00
1:53 PM,35.1,21.9,59,30.27,10.0,WNW,9.2,-,N/A,,Mostly Cloudy,300,2013-01-31 20:53:00
2:53 PM,34.0,21.0,59,30.27,10.0,WNW,9.2,-,N/A,,Partly Cloudy,290,2013-01-31 21:53:00
3:53 PM,32.0,21.9,66,30.30,10.0,West,9.2,-,N/A,,Overcast,270,2013-01-31 22:53:00
4:53 PM,30.9,21.9,69,30.29,10.0,South,5.8,-,N/A,,Partly Cloudy,190,2013-01-31 23:53:00
5:53 PM,30.9,21.9,69,30.29,10.0,Calm,Calm,-,N/A,,Mostly Cloudy,0,2013-02-01 00:53:00
6:53 PM,28.0,19.9,72,30.34,10.0,East,5.8,-,N/A,,Clear,90,2013-02-01 01:53:00
7:53 PM,24.1,18.0,77,30.37,10.0,SE,4.6,-,N/A,,Mostly Cloudy,140,2013-02-01 02:53:00
8:53 PM,25.0,19.9,81,30.36,10.0,Calm,Calm,-,N/A,,Overcast,0,2013-02-01 03:53:00
9:53 PM,26.1,19.0,75,30.34,10.0,Calm,Calm,-,N/A,,Overcast,0,2013-02-01 04:53:00
10:53 PM,26.6,19.4,74,30.24,10.0,East,4.6,-,N/A,,Overcast,80,2013-02-01 05:53:00
11:53 PM,27.0,19.9,75,30.30,10.0,Calm,Calm,-,N/A,,Overcast,0,2013-02-01 06:53:00